CDT,Max TemperatureF,Mean TemperatureF,Min TemperatureF,Max Dew PointF,MeanDew PointF,Min DewpointF,Max Humidity, Mean Humidity, Min Humidity, Max Sea Level PressureIn, Mean Sea Level PressureIn, Min Sea Level PressureIn, Max VisibilityMiles, Mean VisibilityMiles, Min VisibilityMiles, Max Wind SpeedMPH, Mean Wind SpeedMPH, Max Gust SpeedMPH,PrecipitationIn, CloudCover, Events, WindDirDegrees
2013-9-1,91,78,64,70,64,57,100,71,41,29.87,29.79,29.74,10,6,1,22,7,29,0.00,1,,287
2013-9-2,80,70,60,59,56,52,84,60,36,30.02,29.95,29.87,10,10,10,15,7,20,0.00,1,,325
2013-9-3,79,65,51,57,53,49,89,66,42,30.10,30.06,30.02,10,10,10,9,1,12,0.00,0,,257
2013-9-4,87,69,50,63,55,48,96,67,37,30.15,30.11,30.06,10,10,10,10,2,14,0.00,0,,262
2013-9-5,88,75,61,68,61,58,90,67,43,30.19,30.16,30.12,10,10,10,17,5,23,0.00,0,,91
2013-9-6,88,73,57,63,58,52,86,61,36,30.19,30.10,29.99,10,10,10,16,6,21,0.00,0,,155
2013-9-7,92,80,67,69,64,59,78,61,44,30.00,29.93,29.85,10,10,9,16,6,21,0.00,1,,182
2013-9-8,87,79,71,70,68,66,93,72,51,29.99,29.92,29.87,10,9,5,20,11,24,0.00,3,,93
2013-9-9,99,85,70,71,67,60,97,66,35,29.89,29.84,29.79,10,8,3,13,7,20,0.00,0,,194
2013-9-10,97,82,67,64,61,58,81,54,27,30.00,29.95,29.88,10,10,10,21,8,31,0.00,0,,227
2013-9-11,87,79,70,72,67,62,93,71,48,30.05,30.02,29.98,10,10,2,15,5,20,0.09,3,Rain,259
2013-9-12,81,71,61,68,53,43,97,63,28,30.12,30.05,30.01,10,10,8,22,9,28,0.00,0,,308
2013-9-13,72,58,44,48,41,32,83,54,24,30.23,30.17,30.12,10,10,10,16,5,18,0.00,0,,35
2013-9-14,74,57,39,46,42,37,92,61,29,30.20,30.11,30.00,10,10,10,13,5,15,0.00,0,,166
2013-9-15,64,59,53,61,54,42,93,71,48,30.20,30.02,29.96,10,8,1,14,6,17,0.42,7,Rain-Thunderstorm,32
2013-9-16,70,60,50,54,50,45,93,69,44,30.38,30.30,30.22,10,10,10,16,8,21,0.00,3,,57
2013-9-17,70,58,46,59,52,44,93,75,57,30.32,30.20,30.06,10,10,6,14,6,18,0.00,3,,121
2013-9-18,87,74,60,70,63,55,84,71,57,30.07,29.97,29.85,10,9,4,15,7,23,0.05,4,Rain-Thunderstorm,157
2013-9-19,93,80,67,68,66,61,93,67,41,29.88,29.83,29.72,10,9,6,35,10,48,0.32,2,Rain,209
2013-9-20,71,64,57,65,57,47,93,69,44,29.91,29.87,29.81,10,10,6,20,11,25,T,4,Rain,275
2013-9-21,71,59,47,49,47,45,93,67,40,29.96,29.93,29.89,10,10,10,17,6,23,0.00,0,,315
2013-9-22,73,58,43,48,45,41,100,69,38,30.06,30.00,29.95,10,10,2,13,4,14,0.00,0,,88
2013-9-23,75,60,44,51,47,42,92,65,38,30.08,30.01,29.96,10,10,10,15,8,21,0.00,0,,109
2013-9-24,78,62,45,52,48,43,93,66,38,29.99,29.94,29.88,10,10,10,20,8,23,0.00,1,,88
2013-9-25,79,65,50,54,51,48,93,65,36,29.96,29.92,29.88,10,9,5,13,7,17,0.00,0,,83
2013-9-26,83,67,51,58,54,49,96,70,43,30.03,29.99,29.95,10,8,3,14,7,17,0.00,0,,111
2013-9-27,84,68,52,59,51,48,89,62,34,30.11,30.04,29.99,10,10,10,16,7,22,0.00,0,,133
2013-9-28,81,67,52,67,58,51,93,72,51,30.02,29.95,29.88,10,9,4,25,10,33,0.08,5,Rain,218
2013-9-29,73,58,43,52,46,38,100,65,29,30.10,30.04,29.99,10,5,0,9,1,12,0.00,1,Fog,246
2013-9-30,78,60,42,56,46,40,89,60,30,29.99,29.92,29.83,10,10,10,15,7,20,0.00,0,,159